Location: Esmery-Hallon
(49.7172°N, 3.0131°E)
Time: 16:25:44
(UTC+00:00)

Daily predictions for brighter satellites

Satellite Brightness Start Highest point End
(mag) Time Altitude Azimuth Time Altitude Azimuth Time Altitude Azimuth
Cosmos 1802 Rocket 4.3 17:27:39 10° N 17:34:04 83° W 17:40:31 10° S
Cosmos 2285 Rocket 4.2 17:30:03 10° NNW 17:36:23 56° ENE 17:42:39 10° SE
Cosmos 2233 Rocket 4.0 17:30:42 10° N 17:36:58 70° ENE 17:43:16 10° SSE
CZ-4 R/B 4.3 17:33:38 10° SSE 17:37:33 61° ENE 17:41:29 10° N
USA 290 2.4 17:34:27 10° SSW 17:37:38 72° WNW 17:40:50 10° NNE
NOSS 0 Rocket 4.0 17:32:42 10° NNW 17:39:00 82° ENE 17:45:14 10° SSE
USA 306 3.8 17:37:45 10° WNW 17:40:26 27° SW 17:42:22 10° SSE
ARIANE 6 FM1 Upper Stage 4.2 17:38:58 10° NNW 17:41:55 19° NNE 17:44:51 10° ENE
SMAP 4.5 17:38:10 10° S 17:42:37 44° W 17:47:05 10° NNW
Thor Agena Rocket 4.5 17:38:59 10° S 17:43:58 54° W 17:49:03 10° NNW
NOSS 3-4 (A) 3.9 17:38:19 10° NW 17:44:42 56° NE 17:52:14 10° ESE
NOSS 3-4 (C) 3.9 17:38:35 10° NW 17:44:59 55° NE 17:52:31 10° ESE
Cosmos 1725 Rocket 4.3 17:39:30 10° NNW 17:45:44 75° W 17:52:00 10° S
Cosmos 2151 Rocket 3.7 17:44:58 10° N 17:49:30 87° W 17:54:00 10° S
Meteor 1-11 4.3 17:46:27 10° S 17:52:05 85° E 17:57:52 10° NNE
Radarsat Rocket 4.1 17:49:31 10° SE 17:55:17 61° ENE 18:01:35 10° NNW
Cosmos 1607 4.0 17:49:19 10° SW 17:55:28 84° NW 18:01:43 10° NE
Cosmos 1455 Rocket 3.5 17:53:04 10° N 17:57:07 39° ENE 18:01:08 10° SE
Cosmos 44 Rocket 4.3 17:55:03 10° S 17:59:10 27° ESE 18:03:11 11° ENE
YAOGAN 1 2.4 17:55:24 10° SSE 17:59:38 72° ENE 18:03:53 10° N
Cosmos 1975 Rocket 4.2 17:56:41 10° SE 17:59:55 21° E 18:03:08 10° NE
Cosmos 2228 4.0 17:56:28 10° NNE 17:59:56 25° ENE 18:03:25 10° SE
PSLV R/B 3.7 17:56:31 10° SE 18:00:28 46° ENE 18:04:24 10° N
COSMO-SKYMED 1 2.8 17:56:38 10° NNE 18:00:34 42° E 18:04:29 10° S
ATLAS 2AS CENTAUR R/B 4.0 17:54:55 10° W 18:00:54 30° NNW 18:06:50 10° NE
Cosmos 1782 4.1 17:59:17 10° NNE 18:01:44 17° ENE 18:03:12 14° E
Cosmos 2297 Rocket 2.4 17:56:30 10° S 18:01:55 50° ESE 18:07:23 10° NE
Lacrosse 5 rocket 2.1 18:00:04 10° W 18:03:18 35° NNW 18:06:24 11° NE
DNEPR-1 R/B 4.3 18:00:07 10° NNW 18:04:39 45° NE 18:10:00 10° ESE
SPOT 1/Viking Rocket 4.1 18:01:34 10° S 18:06:39 64° WSW 18:11:46 10° NNW
Cosmos 2061 Rocket 4.2 18:01:01 10° N 18:07:26 84° W 18:13:44 10° S
Aureole 3 Rocket 2.5 18:03:38 10° N 18:07:37 63° ENE 18:10:49 10° SSE
CZ-2D R/B 3.2 18:05:33 10° SSE 18:09:28 78° ENE 18:13:30 10° NNW
Meteor 2-1 Rocket 4.5 18:04:02 10° NNW 18:09:52 81° W 18:15:46 10° S
Okean 1 Rocket 3.2 18:08:06 10° NNW 18:12:31 78° W 18:16:51 10° S
SL-16 R/B 4.3 18:07:22 10° N 18:12:44 32° WNW 18:18:07 10° WSW
CZ-4C R/B 2.1 18:08:49 10° SW 18:13:08 70° NW 18:18:45 10° NE
Cosmos 1464 Rocket 4.3 18:10:49 10° N 18:16:55 45° ENE 18:22:54 10° SE
Okean 2 Rocket 3.7 18:13:24 10° NNW 18:17:45 59° W 18:22:02 10° S
Cosmos 2344 4.3 18:13:02 10° SSE 18:19:26 27° ESE 18:23:43 16° ENE
Cosmos 2221 Rocket 3.6 18:15:34 10° S 18:20:01 87° W 18:24:35 10° N
USA 267 3.5 18:15:08 11° ENE 18:21:23 71° NNW 18:27:52 10° WSW
SJ-6B 2.9 18:21:09 10° SE 18:24:21 37° ENE 18:27:34 10° N
Cosmos 1980 4.0 18:24:32 10° NNW 18:30:11 72° WSW 18:35:48 10° SSE
Cosmos 2263 Rocket 3.2 18:26:09 10° SSE 18:30:33 23° ESE 18:31:44 22° E
Cosmos 1025 Rocket 3.8 18:26:26 10° SSW 18:30:39 54° WNW 18:34:56 10° N
Cosmos 2237 Rocket 2.5 18:29:49 10° NNW 18:35:29 71° WSW 18:41:08 10° SSE
Meteor 1-31 Rocket 3.8 18:36:36 24° NE 18:36:36 24° NE 18:38:45 10° N
SKYMED 2 4.5 18:32:58 10° N 18:37:12 50° WNW 18:41:23 10° SW
Meteor 1-27 4.3 18:32:11 10° NNW 18:37:59 88° ENE 18:43:50 10° S
SeaSat 1 4.3 18:37:51 10° S 18:42:12 32° WSW 18:46:35 10° NW
Cosmos 1570 Rocket 3.9 18:37:57 10° SSW 18:43:13 83° ESE 18:48:30 10° NNE
Resurs 01 Rocket 1.6 18:39:16 10° SSE 18:43:39 88° WSW 18:48:06 10° NNW
SPOT 5 3.3 18:45:52 26° ESE 18:48:04 41° ENE 18:52:49 10° N
NOSS 3-3 (C) 4.2 18:44:45 10° WSW 18:50:04 62° NW 18:55:59 12° NE
DMSP B5D1-3 4.4 18:47:51 10° NNE 18:52:59 81° ESE 18:58:06 10° SSW
Tiangong 0.0 18:53:43 10° SW 18:55:41 17° S 18:55:41 17° S
Cosmos 2227 Rocket 2.1 18:55:38 10° SSW 19:01:11 62° ESE 19:05:16 19° NE
SL-16 R/B 2.2 18:55:48 10° NNW 19:01:26 61° ENE 19:03:59 32° SE
Cosmos 773 Rocket 4.0 18:58:50 10° SSW 19:04:07 86° WNW 19:09:27 10° NNE
Cosmos 1346 Rocket 3.5 19:00:40 10° S 19:02:49 33° SSE 19:02:49 33° SSE
Cosmos 2208 Rocket 3.9 18:59:05 10° SSW 19:04:20 89° ESE 19:09:42 10° NNE
Tsikada Rocket 4.3 19:02:26 10° SSE 19:08:05 40° E 19:13:47 10° NNE
CZ-4 R/B 2.7 19:17:56 25° N 19:17:56 25° N 19:19:43 10° N
Okean O Rocket 4.0 19:20:31 11° NNE 19:20:31 11° NNE 19:20:44 10° NNE
ARIANE 6 FM1 Upper Stage 2.8 19:17:38 10° NW 19:21:05 59° N 19:21:05 59° N
CZ-4B R/B 3.5 19:26:08 45° NE 19:26:08 45° NE 19:30:39 10° N
Terra 3.2 19:30:49 25° NNE 19:30:49 25° NNE 19:33:03 10° N
Cosmos 1544 Rocket 3.4 19:25:26 10° N 19:29:48 85° W 19:30:03 78° SSW
Cosmos 1816 Rocket 4.5 19:24:00 10° S 19:30:10 82° W 19:36:27 10° N
CZ-4B DEB 4.0 19:29:06 54° SE 19:30:17 72° ENE 19:35:44 10° NNW
CSL-04 Debris 4.1 19:30:41 35° SSE 19:33:05 89° ENE 19:38:33 10° NNW
Cosmos 2034 Rocket 4.0 19:28:37 10° NNW 19:34:49 81° W 19:41:01 10° S
Cosmos 1782 3.8 19:33:16 10° NNW 19:36:39 39° W 19:37:19 35° WSW
Cosmos 2228 4.5 19:33:10 10° NNW 19:37:00 36° W 19:40:50 10° SSW
Cosmos 1975 Rocket 4.1 19:33:10 10° SSW 19:37:20 44° WNW 19:41:30 10° N
TSX-5 4.1 19:32:19 10° NNW 19:37:23 82° NNW 19:37:23 82° NNW
CSL-04 Rocket 3.6 19:35:11 32° S 19:37:44 79° WSW 19:43:03 10° NNW
RESURS DK-1 4.3 19:34:17 10° NNW 19:35:40 19° N 19:35:40 19° N
Cosmos 44 Rocket 3.8 19:35:24 10° SW 19:40:17 58° NW 19:41:49 41° N
Lacrosse 5 rocket 3.1 19:37:49 10° NW 19:39:50 22° NNW 19:39:50 22° NNW
MOS 1 4.2 19:41:22 66° ENE 19:41:22 66° ENE 19:46:57 10° N
Cosmos 1634 Rocket 3.9 19:35:55 10° N 19:42:15 70° ENE 19:43:02 63° ESE
Cosmos 2297 Rocket 3.6 19:41:00 10° WSW 19:46:09 35° NW 19:51:21 10° NNE
Cosmos 1943 3.5 19:43:43 10° NNW 19:48:32 52° NNE 19:48:32 52° NNE
ATLAS 2AS CENTAUR R/B 4.0 19:48:18 10° NW 19:53:54 26° N 19:55:21 24° NNE
BREEZE-M DEB (TANK) 3.8 19:38:23 10° W 19:55:37 69° S 19:56:30 62° SE
ERS-1 Rocket 3.9 20:02:09 40° N 20:02:09 40° N 20:05:22 10° NNW
CZ-4C R/B 3.8 19:58:16 10° WNW 20:02:27 26° NNW 20:04:22 22° NNE
BREEZE-M DEB (TANK) 4.2 19:58:03 10° SW 20:02:54 63° SE 20:04:47 54° E
Cosmos 972 Rocket 4.4 19:58:53 10° NNW 20:02:46 55° NNW 20:02:46 55° NNW
USA 267 3.8 20:02:29 41° NNE 20:03:57 48° N 20:10:11 10° WNW
Cosmos 2279 Rocket 4.2 19:58:27 10° N 20:03:21 55° NNE 20:03:21 55° NNE
Cosmos 2263 Rocket 2.5 20:08:17 10° SW 20:13:31 65° W 20:13:31 65° W
ADEOS 4.5 20:23:44 45° NW 20:23:44 45° NW 20:27:30 10° NNW
Cosmos 2344 3.5 20:25:26 10° SW 20:33:03 73° NW 20:33:48 68° N
SL-16 R/B 3.9 20:40:33 10° NW 20:45:06 26° WSW 20:45:52 25° WSW
Cosmos 2227 Rocket 3.9 20:40:42 10° WSW 20:45:37 30° NW 20:47:09 26° NNW
ATLAS 2AS CENTAUR R/B 4.4 21:39:54 10° NW 21:42:45 25° NNW 21:42:45 25° NNW
